Flag for Bosnia-Herzegovina Weather past 2 weeks in Banja Luka, Bosnia-Herzegovina

Now
64 °F

Clear.


Feels Like: 64 °F
Forecast: 50 / 69 °F
Wind: 7 mph from South

Location: Banja Luka

Current Time: Apr 27, 2015 at 9:47:23 PM

Latest Report: Apr 27, 2015 at 9:00 PM


Visibility: 10 mi

Pressure: 29.71 "Hg

Humidity: 52%

Dew point: 46 °F

Location of Banja LukaLocation

Historic Weather in Banja Luka — Graph

°F

Banja Luka temperature yesterday

Maximum temperature yesterday: 73 °F (at 2:00 PM)
Minimum temperature yesterday: 52 °F (at 2:00 AM)
Average temperature yesterday: 63 °F

Past Weeks' High & Low Weather Summary

 TemperatureHumidityPressure
High81 °F (Apr 16, 3:00 PM)100% (Apr 19, 5:00 AM)30.39 "Hg (Apr 19, 5:00 AM)
Low32 °F (Apr 19, 7:00 AM)18% (Apr 16, 3:00 PM)29.68 "Hg (Apr 27, 7:30 PM)
Average58 °F59%30.08 "Hg
* Reported Apr 12 8:00 PM — Apr 27 8:30 PM, Banja Luka, Weather by CustomWeather, © 2015

Note: Actual official high and low records may vary slightly from our data, if they occured in-between our weather recording intervals... More about our weather records

Advertising

Banja Luka weather history for previous 24 hours

 ConditionsComfort  
Time TempWeatherWind HumidityBarometerVisibility
8:30 PM
Mon, Apr 27
66 °FScattered clouds.7 mph46%29.71 "HgN/A
8:00 PM68 °FScattered clouds.8 mph43%29.71 "HgN/A
7:30 PM68 °FScattered clouds.12 mph40%29.68 "HgN/A
7:00 PM70 °FScattered clouds.12 mph40%29.71 "HgN/A
6:30 PM72 °FScattered clouds.12 mph38%29.71 "HgN/A
6:00 PM73 °FScattered clouds.9 mph36%29.71 "HgN/A
5:30 PM75 °FScattered clouds.14 mph39%29.71 "HgN/A
5:00 PM75 °FScattered clouds.12 mph39%29.71 "HgN/A
4:30 PM77 °FScattered clouds.12 mph36%29.71 "HgN/A
4:00 PM77 °FScattered clouds.9 mph36%29.71 "HgN/A
3:30 PM75 °FPassing clouds.7 mph41%29.74 "HgN/A
3:00 PM75 °FPassing clouds.5 mph41%29.74 "HgN/A
2:30 PM73 °FPassing clouds.7 mph44%29.74 "HgN/A
2:00 PM73 °FPassing clouds.7 mph44%29.77 "HgN/A
1:30 PM72 °FScattered clouds.7 mph50%29.80 "HgN/A
1:00 PM72 °FLight rain. Partly sunny.9 mph50%29.80 "HgN/A
12:30 PM73 °FScattered clouds.12 mph47%29.80 "HgN/A
12:00 PM73 °FScattered clouds.6 mph47%29.80 "HgN/A
11:30 AM72 °FPassing clouds.2 mph53%29.80 "HgN/A
11:00 AM72 °FPassing clouds.2 mph53%29.80 "HgN/A
10:30 AM72 °FPassing clouds.6 mph53%29.80 "HgN/A
10:00 AM70 °FPassing clouds.2 mph57%29.80 "HgN/A
9:30 AM64 °FPassing clouds.2 mph60%29.80 "HgN/A
9:00 AM61 °FPassing clouds.5 mph63%29.80 "HgN/A
8:30 AM59 °FPassing clouds.5 mph68%29.80 "HgN/A
8:00 AM55 °FPassing clouds.5 mph77%29.83 "HgN/A
7:30 AM52 °FSunny.5 mph82%29.83 "Hg10 mi
7:00 AM48 °FSunny.7 mph94%29.83 "Hg10 mi
6:30 AM50 °FClear.6 mph88%29.83 "Hg10 mi
6:00 AM48 °FClear.9 mph94%29.83 "Hg10 mi
5:30 AM48 °FClear.6 mph94%29.83 "Hg10 mi
5:00 AM48 °FClear.3 mph94%29.83 "Hg10 mi
4:30 AM48 °FClear.2 mph94%29.83 "Hg10 mi
4:00 AM48 °FClear.2 mph94%29.83 "Hg10 mi
3:30 AM50 °FClear.3 mph88%29.83 "Hg10 mi
3:00 AM50 °FClear.2 mph88%29.86 "Hg10 mi
2:30 AM50 °FClear.3 mph88%29.86 "Hg10 mi
2:00 AM52 °FClear.3 mph88%29.86 "Hg10 mi
1:30 AM52 °FClear.5 mph88%29.86 "Hg10 mi
1:00 AM54 °FClear.7 mph82%29.86 "Hg10 mi
12:30 AM54 °FClear.12 mph88%29.86 "Hg10 mi
12:00 AM54 °FClear.6 mph88%29.86 "Hg10 mi
11:30 PM
Sun, Apr 26
54 °FClear.3 mph82%29.86 "Hg10 mi
11:00 PM55 °FClear.3 mph77%29.86 "Hg10 mi
10:30 PM55 °FClear.3 mph82%29.86 "Hg10 mi
10:00 PM57 °FClear.5 mph77%29.86 "Hg10 mi
9:30 PM59 °FClear.2 mph72%29.86 "Hg10 mi
9:00 PM63 °FClear.3 mph64%29.86 "Hg10 mi
Weather by CustomWeather, © 2015

See weather overviewHow to use our weather pages